Location: Unspecified
(0.0000°N, 0.0000°E)
Time: 06:10:04
(UTC+00:00)

NNS O-4 - Visible Passes

Search period start: 17 September 2024 00:00
Search period end: 27 September 2024 00:00
Orbit: 1010 x 1122 km, 89.9° (Epoch: 16 September)

Date Brightness Start Highest point End Pass type
(mag) Time Alt. Az. Time Alt. Az. Time Alt. Az.
17 Sep 8.3 19:47:12 10° S 19:54:03 77° W 20:00:43 10° N visible
18 Sep 8.7 18:53:58 10° SSE 19:00:03 35° E 19:05:59 10° NNE visible
18 Sep 10.3 20:41:09 10° SW 20:46:03 21° W 20:50:53 10° NW visible
19 Sep 8.5 19:45:22 10° S 19:52:08 67° W 19:58:42 10° NNW visible
20 Sep 8.5 18:51:51 10° SSE 18:58:08 40° E 19:04:15 10° NNE visible
20 Sep 10.5 20:39:44 10° SW 20:44:06 18° W 20:48:25 10° NW visible
21 Sep 8.7 19:43:32 10° S 19:50:12 58° W 19:56:40 10° NNW visible
22 Sep 8.4 18:49:47 10° SSE 18:56:13 46° E 19:02:27 10° NNE visible
22 Sep 10.7 20:38:27 10° SW 20:42:10 15° W 20:45:50 10° WNW visible
23 Sep 9.0 19:41:45 10° SSW 19:48:15 51° W 19:54:36 10° NNW visible
24 Sep 8.3 18:47:44 10° SSE 18:54:16 53° E 19:00:37 10° N visible
24 Sep 10.9 20:37:23 10° WSW 20:40:13 13° W 20:43:01 10° WNW visible
25 Sep 9.2 19:39:58 10° SSW 19:46:19 44° W 19:52:29 10° NNW visible
26 Sep 8.2 18:45:43 10° SSE 18:52:20 61° E 18:58:45 10° N visible
26 Sep 11.1 20:36:55 10° WSW 20:38:16 11° W 20:39:35 10° W visible
